Wind_Speed
6 6 5 5 4 3 2 2 1 1 2 2 2 3 3 2 2 3 3 4 4 3 3 3 3 3 4 4 4 4 5 5 6 6 7 7 8 8 8 8 7 8 7
7 6 5 5 4 3 3 1 0 1 1 2 2 2 2 3 3 3 4 4 4 4 4 4 4 4 5 5 5 5 5 5 6 7 7 8 8 8 8 8 8 8 8
7 5 5 5 4 3 3 1 1 1 1 2 2 2 3 3 3 4 4 4 5 5 5 5 5 5 5 5 6 5 5 5 6 7 7 8 8 8 8 9 8 8 8
6 6 5 5 4 4 3 2 1 1 1 2 2 2 3 4 4 4 4 5 5 5 5 6 7 6 6 6 6 6 6 6 6 7 7 8 8 9 9 9 9 9 8
6 5 5 4 4 4 3 3 1 1 0 1 2 3 4 5 5 6 5 6 6 6 6 7 7 7 7 6 7 7 7 7 7 7 7 8 9 9 9 9 9 9 9
6 5 5 4 4 4 3 2 1 1 1 1 3 3 4 5 5 6 6 6 6 6 7 7 7 7 7 7 7 7 8 8 8 8 8 8 9 9 10 10 10 9 10
5 5 4 3 4 4 3 2 2 1 1 2 3 3 5 5 6 6 6 7 7 6 7 7 7 8 8 8 8 8 8 8 9 9 9 9 9 10 11 11 10 10 10
6 6 5 4 3 3 3 3 2 1 1 2 3 4 5 6 7 7 7 7 7 7 7 7 7 7 7 8 8 8 8 8 8 9 10 10 10 10 11 11 11 11 10
7 7 6 5 4 4 4 3 2 2 2 3 4 5 6 6 7 7 7 7 7 7 7 6 6 7 7 7 7 8 8 8 9 8 9 10 11 11 11 11 11 12 11
8 8 7 6 4 4 3 3 3 2 2 3 4 5 6 6 7 7 8 8 7 7 7 6 7 6 7 7 8 8 8 8 9 8 9 10 11 11 11 11 12 12 12
9 8 7 6 4 4 4 3 3 2 3 4 5 6 6 7 7 8 8 8 8 7 7 6 6 7 7 8 8 8 8 8 9 9 9 10 11 11 11 11 12 13 12
9 8 7 6 5 5 4 3 3 2 3 4 5 6 6 7 7 8 8 8 8 8 7 6 6 6 7 7 8 8 7 8 8 9 9 10 11 11 11 11 12 13 13
9 9 8 7 6 6 4 3 3 2 3 4 5 5 6 6 7 8 8 8 7 7 7 6 6 6 7 7 8 8 7 8 8 8 9 10 11 11 11 11 12 13 14
8 9 9 8 7 6 5 4 3 3 3 4 4 5 6 6 7 8 8 8 7 7 7 6 6 6 6 7 7 7 7 7 8 8 8 10 10 11 11 11 12 13 14
9 8 8 7 7 6 5 4 3 3 3 4 4 5 6 6 7 7 8 8 7 7 7 7 7 6 6 6 6 7 7 7 8 8 8 9 9 10 10 10 11 12 13
9 8 8 7 7 6 5 3 3 3 4 3 4 5 6 6 7 7 7 7 7 7 6 6 6 5 5 4 5 5 5 6 7 8 8 8 9 9 9 10 11 12 12
9 7 8 7 5 5 4 3 3 4 4 3 4 5 6 6 6 7 7 7 7 7 6 6 5 5 4 3 3 4 4 5 6 7 7 7 8 8 9 9 10 11 12
8 7 7 6 6 5 5 4 3 4 4 3 4 4 5 6 6 7 7 7 7 6 6 6 5 4 3 2 2 2 4 4 5 6 6 6 7 8 8 8 9 10 11
9 7 7 7 7 6 5 5 4 3 3 3 3 4 5 5 6 7 7 7 7 6 6 5 5 4 3 1 1 2 3 4 4 5 6 6 6 7 7 7 8 9 10
9 8 8 7 7 6 5 5 5 4 3 3 3 4 5 5 6 7 7 7 7 6 6 5 5 4 2 1 0 1 2 3 4 4 5 5 6 7 7 7 7 8 9
10 10 8 7 6 6 5 5 4 3 3 2 2 4 5 5 6 6 6 6 6 6 6 6 5 4 3 2 1 1 1 2 3 3 4 4 5 6 6 7 7 7 8
12 11 9 8 7 6 6 5 4 3 3 2 2 3 4 5 5 6 5 6 6 6 6 6 5 5 4 3 2 2 1 1 2 2 3 3 4 5 5 7 7 8 8
11 11 9 8 7 7 6 6 5 4 3 2 2 3 4 4 5 5 5 5 5 5 5 5 5 5 4 3 3 2 1 1 1 1 2 2 3 3 4 5 6 7 8
12 12 10 9 8 8 7 6 5 4 3 2 1 2 3 4 4 5 5 4 4 5 5 5 5 5 5 4 4 3 3 2 1 0 1 1 1 2 3 3 4 5 7
13 12 11 10 9 8 8 6 5 4 3 2 2 2 2 3 4 4 4 4 4 3 4 4 5 5 5 4 4 4 3 3 2 1 1 0 1 2 2 3 4 4 5
13 12 11 10 10 9 8 7 5 5 4 3 2 1 1 2 3 3 4 4 3 3 3 3 4 4 4 4 4 3 3 3 3 2 2 1 1 1 2 3 3 4 4
Wind_Direction
163 153 151 154 151 144 130 102 55 24 8 356 356 342 326 324 320 309 301 297 288 281 275 266 256 252 250 246 242 235 226 221 217 212 206 203 199 195 193 190 189 185 180
170 160 158 154 154 152 154 155 93 17 349 339 324 318 314 315 317 309 300 294 286 278 275 268 263 261 252 245 242 238 231 226 220 215 210 208 205 201 200 197 196 194 191
171 167 164 164 168 172 172 184 244 306 321 314 314 325 328 323 313 305 301 294 288 283 276 270 265 264 256 248 243 239 234 228 223 218 214 212 211 207 206 203 201 199 198
172 171 168 175 185 187 187 184 224 282 338 316 306 321 324 322 319 314 305 299 292 284 277 274 270 264 259 254 246 240 235 228 223 219 217 217 216 213 210 207 206 205 204
177 177 176 182 193 195 181 177 186 197 334 326 312 319 324 322 322 321 312 303 295 289 280 274 269 265 262 259 251 245 240 234 228 224 223 220 219 216 214 213 213 210 210
189 186 188 196 189 181 172 172 152 234 289 331 316 326 333 331 332 331 321 309 301 295 286 277 268 265 263 262 255 248 244 238 231 227 226 224 223 219 216 216 217 216 213
185 187 189 193 186 176 184 182 170 211 315 325 324 336 336 331 335 334 327 317 306 299 293 282 273 266 262 258 254 247 243 241 234 230 227 225 225 221 218 217 219 217 212
185 189 186 191 191 196 198 192 195 223 294 330 332 334 334 332 333 334 329 321 313 302 295 288 277 268 261 256 253 247 244 242 238 230 228 227 224 222 220 218 219 218 215
188 193 192 191 188 197 194 196 214 237 285 316 324 328 329 329 332 332 326 323 318 308 297 286 279 271 264 257 253 247 242 241 234 227 225 225 223 224 221 216 219 220 217
198 198 197 193 192 201 205 204 221 244 286 311 321 326 327 327 331 330 327 323 318 312 302 291 283 275 263 256 253 248 243 238 232 228 225 224 224 225 223 220 218 217 216
198 197 196 196 199 204 208 219 231 261 296 312 322 326 326 328 331 330 327 322 317 313 306 297 288 277 268 260 256 252 245 239 233 231 226 226 225 225 225 224 223 223 218
195 197 199 197 201 204 211 226 240 269 300 311 321 325 327 329 331 328 324 320 316 314 309 301 292 283 272 266 258 252 246 240 236 233 229 227 226 225 225 225 224 224 220
197 196 200 199 200 201 203 220 245 272 298 312 322 328 330 329 329 328 326 324 320 319 315 307 296 285 276 268 259 251 246 239 236 234 231 228 228 226 226 226 225 224 219
196 198 201 204 203 204 202 212 240 274 304 316 322 330 332 329 329 331 331 329 326 323 321 315 304 291 280 273 262 253 245 239 235 234 234 232 229 225 225 224 225 221 214
188 192 198 202 202 204 206 213 236 272 298 312 319 327 330 331 332 334 338 336 329 324 322 318 310 299 285 276 263 254 246 239 232 232 232 231 228 225 225 222 221 215 214
188 186 191 192 199 207 210 211 244 271 290 307 317 326 330 334 336 335 340 338 334 330 324 320 312 298 289 277 263 253 243 236 227 227 227 227 226 225 224 221 218 213 214
192 191 192 190 198 206 204 221 274 281 287 305 322 329 333 334 336 337 341 342 341 339 332 328 321 309 298 281 261 245 232 229 223 224 225 225 224 223 223 220 219 217 216
195 197 199 200 207 217 226 241 276 290 293 302 321 329 334 337 339 340 341 347 348 345 343 341 338 328 314 291 260 232 217 217 218 219 220 222 221 221 223 222 220 218 219
200 201 200 208 219 227 232 242 263 274 289 300 325 338 341 346 349 349 351 353 355 353 353 355 352 348 338 316 264 220 205 205 211 214 215 220 223 223 223 224 224 221 221
201 204 204 214 222 225 232 239 250 258 273 296 327 342 345 352 356 357 360 1 2 4 5 3 2 2 6 7 237 206 203 201 205 209 212 220 226 227 224 225 226 224 223
201 201 202 212 217 218 224 232 240 254 266 282 324 341 347 353 359 360 3 4 6 10 14 15 15 17 23 37 70 156 187 190 197 208 216 221 228 232 229 224 225 225 224
201 200 206 210 216 221 223 226 227 243 256 282 330 344 350 355 358 3 7 7 10 12 19 23 26 30 32 42 55 82 137 164 188 209 221 227 232 234 230 226 226 229 231
198 201 205 209 216 222 229 233 228 239 255 282 317 341 352 356 360 5 11 17 20 25 30 32 33 36 39 46 52 60 88 111 144 205 224 227 228 229 234 235 233 234 237
198 199 205 211 214 220 227 231 229 240 253 260 296 339 354 358 3 10 19 27 30 34 38 39 39 42 44 50 56 66 77 88 96 99 204 229 229 228 236 244 244 244 244
197 200 207 212 214 219 222 222 226 233 246 256 288 324 348 358 9 15 21 29 30 31 38 43 44 43 45 51 58 64 70 68 64 81 78 340 269 243 247 256 259 256 255
199 204 210 214 216 217 221 228 234 239 242 242 257 290 337 357 2 9 15 19 25 30 34 38 40 42 44 47 57 63 63 60 64 68 64 48 355 282 265 267 269 267 267
Height
5892 5892 5893 5893 5894 5894 5894 5894 5895 5895 5895 5894 5894 5893 5893 5893 5892 5891 5891 5890 5889 5889 5888 5888 5888 5887 5887 5887 5887 5888 5888 5889 5889 5890 5891 5892 5892 5893 5894 5895 5896 5896 5897
5891 5892 5893 5893 5894 5894 5894 5895 5895 5895 5895 5894 5894 5893 5893 5892 5892 5891 5890 5889 5888 5888 5887 5887 5887 5886 5886 5886 5887 5887 5887 5888 5889 5890 5890 5891 5892 5893 5894 5894 5895 5896 5897
5891 5891 5892 5893 5894 5894 5894 5895 5895 5894 5894 5894 5894 5893 5893 5892 5891 5890 5889 5888 5888 5887 5886 5886 5886 5885 5885 5885 5886 5886 5886 5887 5888 5888 5889 5890 5891 5892 5893 5894 5895 5895 5897
5891 5891 5892 5893 5893 5894 5894 5894 5894 5894 5894 5894 5893 5893 5892 5891 5890 5889 5888 5887 5887 5886 5885 5885 5885 5884 5884 5884 5884 5885 5885 5886 5886 5887 5888 5889 5890 5891 5892 5893 5894 5895 5896
5890 5891 5892 5892 5893 5894 5894 5894 5894 5893 5893 5893 5893 5892 5892 5891 5890 5888 5887 5886 5885 5885 5884 5883 5883 5883 5883 5883 5883 5884 5884 5885 5885 5886 5887 5888 5889 5890 5891 5892 5893 5894 5895
5890 5891 5891 5892 5893 5893 5894 5894 5894 5894 5893 5893 5893 5892 5891 5890 5889 5888 5886 5885 5884 5883 5882 5882 5882 5881 5881 5881 5882 5882 5883 5883 5884 5885 5886 5886 5887 5888 5889 5891 5892 5893 5894
5889 5890 5891 5892 5892 5893 5893 5894 5894 5894 5893 5893 5892 5891 5890 5889 5888 5887 5885 5884 5883 5882 5881 5880 5880 5879 5879 5880 5880 5880 5881 5881 5882 5883 5884 5885 5886 5887 5888 5889 5890 5892 5893
5888 5889 5890 5891 5892 5893 5893 5893 5894 5893 5893 5893 5892 5891 5890 5889 5887 5886 5884 5883 5881 5880 5879 5878 5878 5878 5878 5878 5878 5879 5879 5880 5880 5881 5882 5883 5884 5886 5887 5888 5889 5890 5892
5887 5889 5890 5891 5892 5892 5893 5893 5893 5893 5893 5892 5891 5890 5889 5888 5886 5885 5883 5882 5880 5879 5877 5877 5876 5876 5876 5876 5876 5877 5878 5878 5879 5880 5881 5882 5883 5884 5885 5886 5888 5889 5891
5886 5888 5889 5890 5891 5892 5892 5893 5892 5892 5892 5891 5891 5889 5888 5887 5885 5884 5882 5881 5879 5877 5876 5875 5874 5874 5874 5874 5875 5875 5876 5876 5877 5878 5879 5880 5881 5882 5883 5885 5886 5888 5889
5885 5887 5888 5889 5890 5891 5892 5892 5892 5892 5891 5891 5890 5889 5887 5886 5884 5883 5881 5879 5878 5876 5875 5874 5873 5873 5872 5872 5873 5873 5874 5875 5876 5877 5878 5879 5879 5880 5882 5883 5884 5886 5887
5884 5886 5887 5888 5889 5890 5891 5891 5891 5891 5891 5890 5889 5887 5886 5885 5883 5882 5880 5878 5876 5875 5873 5872 5871 5871 5870 5870 5871 5871 5872 5873 5874 5875 5876 5877 5877 5879 5880 5881 5882 5884 5885
5883 5885 5886 5887 5888 5889 5890 5890 5890 5890 5890 5889 5888 5887 5885 5884 5882 5880 5879 5877 5875 5874 5872 5871 5870 5869 5869 5868 5869 5869 5870 5871 5872 5873 5874 5875 5876 5877 5878 5879 5880 5881 5883
5882 5883 5885 5886 5887 5888 5889 5889 5890 5889 5889 5888 5887 5886 5884 5883 5881 5879 5877 5875 5874 5872 5871 5870 5869 5868 5867 5867 5867 5868 5868 5869 5870 5871 5872 5873 5874 5875 5876 5877 5878 5879 5881
5881 5882 5884 5885 5886 5887 5887 5888 5888 5888 5887 5887 5886 5884 5883 5882 5880 5878 5876 5874 5873 5871 5869 5868 5867 5866 5866 5865 5865 5866 5867 5867 5868 5869 5870 5871 5872 5873 5874 5875 5876 5877 5879
5880 5881 5883 5884 5885 5886 5886 5887 5887 5886 5886 5885 5884 5883 5882 5880 5879 5877 5875 5874 5872 5870 5868 5867 5866 5865 5864 5864 5864 5864 5865 5866 5867 5868 5869 5870 5871 5871 5872 5873 5875 5876 5877
5879 5881 5882 5883 5884 5884 5885 5885 5885 5885 5885 5884 5883 5882 5881 5879 5878 5876 5875 5873 5871 5869 5867 5866 5865 5864 5863 5862 5863 5863 5863 5864 5865 5866 5867 5868 5869 5870 5871 5872 5873 5874 5876
5878 5879 5881 5882 5883 5883 5884 5884 5884 5884 5883 5883 5882 5881 5879 5878 5876 5875 5873 5872 5870 5868 5866 5865 5864 5863 5862 5862 5862 5862 5862 5863 5864 5865 5866 5867 5868 5869 5869 5870 5871 5872 5874
5877 5878 5879 5881 5882 5882 5883 5883 5883 5883 5882 5881 5881 5880 5879 5877 5876 5874 5873 5871 5869 5867 5866 5864 5863 5862 5862 5861 5861 5861 5862 5862 5863 5864 5865 5865 5866 5867 5868 5869 5870 5871 5872
5875 5876 5878 5879 5880 5881 5881 5882 5882 5882 5881 5880 5880 5879 5878 5876 5875 5874 5872 5870 5868 5867 5865 5864 5863 5862 5861 5861 5861 5860 5861 5861 5862 5863 5864 5864 5865 5865 5866 5867 5868 5869 5870
5873 5875 5877 5878 5879 5879 5880 5880 5881 5881 5880 5879 5879 5878 5877 5876 5874 5873 5872 5870 5868 5867 5865 5864 5863 5862 5861 5861 5860 5860 5860 5860 5861 5862 5863 5863 5864 5864 5865 5866 5867 5868 5869
5871 5873 5875 5877 5878 5878 5879 5879 5879 5879 5879 5878 5878 5877 5876 5875 5874 5873 5871 5870 5868 5867 5866 5864 5863 5862 5861 5861 5860 5860 5860 5861 5861 5861 5862 5862 5863 5863 5864 5864 5865 5866 5867
5869 5871 5873 5875 5876 5877 5877 5877 5878 5878 5878 5877 5877 5876 5875 5875 5874 5872 5871 5869 5868 5867 5866 5865 5864 5863 5862 5861 5861 5860 5860 5860 5860 5861 5861 5861 5862 5862 5863 5863 5864 5865 5866
5868 5870 5872 5873 5874 5875 5876 5876 5876 5877 5877 5876 5876 5875 5875 5874 5873 5872 5871 5869 5868 5867 5866 5865 5864 5863 5862 5862 5861 5860 5861 5860 5861 5861 5861 5861 5861 5861 5862 5862 5863 5863 5864
5866 5868 5870 5872 5873 5874 5874 5875 5875 5875 5875 5875 5875 5875 5874 5874 5873 5872 5871 5869 5868 5867 5866 5866 5865 5864 5863 5862 5861 5861 5861 5861 5860 5861 5861 5861 5861 5861 5861 5861 5861 5862 5862
5864 5867 5868 5870 5871 5872 5873 5873 5873 5874 5874 5874 5874 5874 5874 5873 5872 5871 5870 5870 5869 5868 5867 5866 5865 5864 5863 5863 5862 5862 5861 5861 5860 5860 5860 5860 5860 5860 5860 5860 5860 5860 5860